ECMWFFLT1_700_spd_234.txt.gz
Wind_Speed
9 10 12 12 11 9 7 5 4 4 4 5 6 6 7 7 8 8 9 9 9 9 9 10 10 11 11 11 11 11 11 11 12 13 14 16 18 20 20 20 18 18 19 19 18 17 18 18 18 19 19 20 20 21 21 21 20 20 20 20 19 18 18
11 11 12 13 11 9 8 5 4 5 5 6 7 8 8 8 9 9 9 9 9 9 9 10 10 10 10 10 10 10 10 9 10 10 11 12 13 15 16 15 14 14 16 18 18 18 18 18 18 18 18 19 19 20 20 20 18 19 19 19 17 16 15
13 13 12 12 12 10 9 7 5 6 7 8 9 9 9 9 10 10 10 10 10 9 9 9 9 9 9 9 9 9 9 8 8 8 8 9 10 11 13 13 13 13 13 15 16 17 17 18 18 17 17 18 18 19 19 18 17 16 16 16 15 13 12
14 15 14 14 13 12 11 9 7 7 9 10 9 10 10 10 11 11 11 11 10 9 9 8 8 9 9 9 9 8 8 7 7 7 7 8 8 9 11 12 13 13 13 13 14 15 16 17 18 17 16 17 17 18 18 16 14 13 12 12 12 11 11
14 15 16 16 15 13 13 11 10 8 9 11 11 11 11 11 12 12 12 11 11 10 9 8 8 8 8 8 8 8 7 7 6 6 6 6 7 8 9 11 11 11 11 11 12 13 14 16 16 16 15 15 15 16 16 15 13 11 10 10 10 10 11
14 15 16 17 16 15 13 13 12 10 11 11 12 12 12 11 12 13 13 12 11 10 9 8 8 8 8 7 7 7 7 7 7 6 5 5 6 7 7 8 9 9 9 10 10 10 11 12 13 13 13 13 13 14 15 14 12 11 10 9 9 9 11
14 15 17 18 18 17 15 14 13 12 12 13 13 13 12 12 13 13 13 13 12 11 9 8 8 8 8 8 7 6 6 6 7 6 5 4 5 6 6 7 7 8 8 9 8 8 9 10 11 11 11 12 13 13 14 13 12 11 9 8 9 9 10
15 16 18 19 19 18 16 14 14 13 13 14 15 14 12 12 13 14 14 14 13 12 10 8 7 8 8 8 8 7 6 6 6 5 4 4 4 4 4 5 6 7 8 8 8 8 9 10 11 12 12 12 12 12 12 12 12 11 9 8 9 10 10
16 17 18 18 19 18 16 14 13 13 13 15 15 14 12 12 13 14 14 14 13 12 11 9 8 9 9 9 9 7 6 6 5 5 4 4 4 3 4 4 5 6 7 7 7 7 8 10 11 12 12 12 12 11 11 11 11 10 9 8 8 9 9
16 17 18 18 18 18 17 15 13 13 14 14 15 13 12 12 13 13 14 14 13 12 11 10 9 9 9 10 9 8 7 6 6 5 4 4 4 3 4 4 5 6 6 6 6 6 7 8 9 10 11 12 11 10 10 10 11 10 10 9 8 8 8
16 17 17 17 17 17 17 15 13 13 14 13 13 12 11 12 13 13 13 13 12 11 11 10 10 9 9 9 8 7 6 6 5 5 5 5 5 4 4 5 5 5 6 6 5 6 6 7 9 10 11 12 11 10 10 10 10 11 10 10 8 7 8
15 16 16 17 17 16 15 14 13 13 14 12 11 10 10 11 12 12 12 12 11 10 10 9 8 8 7 7 6 6 5 5 5 5 5 5 6 5 6 6 6 6 7 7 7 7 8 8 9 10 11 11 11 10 10 10 10 10 11 10 9 8 8
14 15 15 16 17 15 14 13 11 12 13 11 9 8 9 10 11 11 11 10 9 9 9 8 7 6 5 4 4 4 5 5 5 5 5 6 7 7 7 8 8 7 7 7 7 7 7 7 7 7 8 8 8 8 9 9 9 10 11 11 10 9 9
14 14 14 15 16 15 14 13 11 11 11 9 8 8 8 9 9 9 9 9 8 8 7 6 5 4 3 2 1 2 3 5 6 6 7 7 8 8 8 9 8 8 7 6 6 5 5 4 4 5 5 5 5 5 6 7 8 9 9 9 9 8 7
13 14 13 14 15 15 15 14 12 11 11 8 7 8 8 8 7 7 8 7 7 6 5 4 3 2 2 2 1 1 2 4 5 5 5 6 6 7 7 7 7 6 5 5 5 5 5 3 2 3 2 2 2 2 3 4 5 6 6 6 7 7 6
13 13 13 13 13 14 15 15 13 12 10 8 7 8 8 8 7 6 6 6 6 5 4 3 2 1 2 2 1 1 2 2 3 3 3 4 4 5 6 6 6 5 4 3 3 4 4 3 2 1 1 0 0 1 1 2 3 4 5 5 6 5 4
12 12 12 12 12 14 16 16 15 13 10 8 7 7 7 6 6 5 5 6 6 6 4 3 1 0 1 1 1 1 1 1 2 2 3 3 3 4 4 5 4 4 3 2 2 2 3 3 2 2 1 1 1 1 1 0 1 2 3 4 3 2 2
12 11 11 11 11 13 15 16 15 13 10 8 7 6 6 5 5 4 4 5 6 6 5 3 2 0 1 1 1 1 1 1 1 2 2 2 3 3 3 3 3 3 2 2 2 2 2 2 2 2 2 3 3 3 3 4 3 2 1 2 1 1 2
12 11 10 10 11 12 14 16 17 14 11 9 7 6 5 4 4 4 5 5 6 6 6 4 2 1 2 2 2 1 1 1 1 1 2 2 3 3 3 3 3 2 1 1 2 2 1 1 1 3 4 5 5 4 3 4 4 3 2 1 2 2 2
12 10 10 10 10 12 14 15 17 16 12 9 7 6 5 4 4 5 5 5 5 6 6 5 2 1 2 2 2 1 1 1 1 2 2 2 3 3 3 2 2 1 0 2 3 4 4 4 4 4 5 5 5 4 3 3 3 2 2 0 2 3 3
11 10 9 9 10 12 14 14 16 17 13 10 7 6 5 4 5 6 5 5 5 5 6 5 3 2 3 2 2 1 1 2 2 2 3 3 2 2 2 2 1 2 2 4 5 6 6 5 5 5 5 5 4 4 3 2 2 3 2 1 1 2 4
11 9 9 9 10 12 13 14 15 16 14 10 8 6 5 4 5 6 5 4 5 5 5 5 3 3 3 3 2 2 2 2 2 3 3 2 2 2 2 2 3 4 4 5 6 6 5 5 5 4 4 4 3 3 3 2 2 2 2 2 2 2 3
10 9 8 8 9 11 13 13 13 15 15 11 8 6 4 5 6 5 4 4 5 5 5 5 3 3 3 3 3 3 3 3 2 2 2 2 2 2 3 4 4 5 5 5 5 5 5 4 4 3 3 3 3 3 2 1 1 2 2 1 1 2 2
9 8 8 8 9 11 12 12 12 13 14 12 8 5 4 5 6 5 4 4 4 4 5 4 4 3 4 4 4 3 3 3 2 2 2 3 3 4 5 5 5 5 5 4 4 4 4 4 4 3 2 2 2 2 2 1 1 2 2 2 2 2 1
8 8 7 7 8 10 11 12 12 12 13 12 8 5 4 5 6 5 5 5 5 5 5 5 4 4 5 5 5 4 3 3 2 2 2 4 5 5 5 6 5 5 5 4 4 4 3 3 3 2 2 1 1 1 1 1 1 1 2 2 2 2 2
7 7 7 7 7 9 10 11 11 11 12 13 9 5 4 5 6 5 5 5 5 5 6 5 5 5 5 6 5 4 3 2 2 2 4 5 5 5 6 6 6 5 5 5 4 4 3 2 2 2 1 1 0 1 0 1 1 1 2 2 2 2 2
6 7 7 7 7 8 9 10 11 11 11 12 11 7 4 5 6 5 5 5 6 6 6 6 6 6 6 6 5 5 3 3 3 3 5 6 6 6 6 6 6 6 5 5 4 4 3 3 2 1 1 1 1 1 1 1 1 1 2 2 2 2 2
7 7 7 7 7 8 9 10 10 11 11 11 11 9 6 5 6 6 5 6 6 7 7 7 7 6 6 6 6 5 4 4 4 4 5 5 5 6 6 6 6 5 5 5 4 4 3 3 2 2 2 2 2 2 2 2 2 2 2 2 3 3 3
10 9 8 7 7 8 9 10 10 10 10 10 11 10 7 6 7 7 6 6 7 7 8 8 7 7 7 6 6 5 5 5 5 5 5 5 6 7 7 6 6 6 5 5 4 4 3 3 3 3 3 3 2 3 3 3 3 3 3 3 4 4 4
12 11 10 8 8 9 10 10 10 10 10 10 10 10 9 7 7 8 7 7 7 8 8 8 8 8 7 7 6 5 5 6 6 6 6 6 7 7 6 7 7 6 6 5 4 4 4 3 3 3 3 3 3 4 4 3 3 3 3 4 4 4 4
13 13 12 10 10 11 11 11 11 11 11 10 10 10 9 8 7 9 9 8 8 9 8 8 9 8 8 8 7 7 6 6 6 7 8 8 8 7 7 7 7 6 6 6 5 4 4 4 4 4 4 4 4 4 4 4 4 3 3 4 4 4 5
13 14 13 12 12 12 12 12 13 12 11 11 10 9 9 9 8 9 10 9 9 9 9 9 9 9 9 8 8 8 8 8 8 8 9 10 9 9 8 8 7 7 6 6 6 5 5 5 5 4 4 4 5 5 5 5 5 3 3 3 4 4 4
14 13 13 13 13 13 14 14 14 14 13 12 11 10 9 9 8 9 10 11 10 10 10 10 9 9 9 9 10 10 10 10 9 9 10 10 10 10 10 9 8 8 7 7 6 6 6 7 6 5 5 5 5 5 6 6 5 4 3 4 4 4 4
14 13 13 14 15 15 15 14 15 15 14 14 13 11 10 9 9 9 10 11 11 11 11 11 11 10 10 10 11 11 11 11 10 10 10 11 11 11 10 10 9 8 8 8 7 7 7 8 7 6 6 6 6 6 6 6 6 4 4 4 5 5 3
14 14 14 13 14 15 15 15 15 16 16 15 14 13 12 10 9 9 10 11 12 12 11 12 12 11 10 11 12 12 12 12 11 11 11 11 11 11 10 10 10 10 9 9 8 8 8 8 8 7 7 7 7 7 7 6 6 5 5 5 6 5 3
15 14 13 12 12 14 15 15 15 16 17 17 16 15 14 12 11 10 10 10 12 13 13 12 13 12 12 11 12 13 13 12 12 12 11 11 11 11 10 10 11 10 10 10 10 9 9 9 9 8 8 8 7 7 7 7 6 6 6 6 6 4 3
15 14 13 12 12 13 15 16 16 16 16 17 18 17 16 14 12 11 10 10 11 13 14 14 13 13 13 12 12 13 13 12 12 12 12 13 12 11 11 11 11 11 11 11 10 10 10 9 9 9 8 8 8 7 7 7 7 7 7 7 6 4 4

ECMWFFLT1_700_spd_240.txt.gz
Wind_Speed
12 13 14 15 16 17 16 16 15 13 12 10 10 9 9 9 10 10 12 12 13 13 13 13 12 11 10 10 10 9 9 9 8 7 6 6 6 6 8 9 11 13 14 16 18 18 18 17 16 17 16 15 14 13 13 14 14 13 13 13 13 13 13
11 12 13 14 15 16 16 16 16 15 14 13 12 11 11 11 11 11 12 13 14 14 14 14 13 12 11 11 10 9 9 8 7 6 5 4 4 5 7 8 9 9 9 11 13 14 15 16 15 16 16 15 14 15 15 14 14 13 13 13 13 13 12
12 12 13 14 15 16 16 16 15 15 15 15 14 13 12 12 12 11 11 12 13 14 14 13 13 12 12 12 11 10 9 9 8 7 5 4 4 5 6 8 8 7 7 8 11 12 12 12 12 13 15 14 13 14 14 13 13 13 12 12 12 12 12
13 14 14 16 16 17 17 17 16 15 15 14 15 15 14 13 13 12 12 11 12 12 13 13 12 11 11 11 10 10 9 8 8 7 6 5 5 5 6 7 8 7 7 7 9 11 10 9 10 11 12 12 11 12 12 10 10 11 11 11 11 12 12
14 15 16 17 18 18 18 18 18 17 16 14 14 15 15 15 14 13 13 12 12 12 12 12 11 10 9 9 9 9 8 8 8 7 6 6 6 6 6 7 7 8 8 7 7 9 10 9 9 9 9 11 10 9 9 8 9 10 10 11 11 11 12
15 16 17 18 19 19 19 19 19 19 17 16 15 14 14 15 14 14 13 13 12 13 13 13 12 10 9 9 9 9 9 8 7 7 6 6 5 6 6 7 7 7 8 8 7 9 11 9 8 9 9 10 10 8 8 7 7 9 9 10 11 12 12
14 16 17 18 19 20 20 19 19 19 18 17 16 15 14 14 14 14 13 13 12 13 13 13 12 10 9 9 10 10 10 8 7 6 5 5 4 4 6 6 7 7 7 7 7 10 11 9 9 10 8 7 8 9 8 7 7 8 9 10 10 11 11
13 15 17 18 19 20 20 20 20 20 19 18 17 16 15 14 14 13 13 12 12 13 13 13 12 10 10 10 10 11 11 9 7 5 4 4 3 3 4 5 6 6 6 6 7 9 10 8 8 9 8 6 6 8 9 9 8 9 9 9 10 10 10
13 15 17 18 19 19 20 20 20 20 19 18 18 17 15 15 14 13 12 12 12 12 12 12 11 10 10 10 11 11 10 9 7 5 4 4 4 4 4 4 5 6 6 7 7 7 8 8 7 7 7 6 6 8 9 9 9 9 8 8 8 9 9
14 15 17 18 18 18 19 19 19 20 19 18 18 17 16 15 14 13 12 12 12 12 11 11 11 10 10 10 10 10 9 8 7 6 5 5 5 5 5 5 5 6 7 7 7 7 7 7 7 7 6 6 6 7 8 9 10 9 8 7 8 8 8
15 15 15 17 17 18 17 17 18 19 19 18 18 18 16 15 14 13 12 12 11 11 10 10 9 9 9 10 10 10 8 7 6 7 6 6 6 6 6 6 6 7 7 7 8 7 7 7 8 7 7 6 6 7 9 9 10 9 8 7 7 8 8
16 14 15 16 17 17 17 16 18 19 19 18 17 17 16 15 14 13 12 11 11 10 9 9 8 8 9 9 9 9 7 6 6 6 7 7 6 6 6 6 7 7 8 8 9 9 9 9 9 9 8 8 8 9 9 9 9 9 8 7 7 8 8
17 14 14 15 16 17 16 15 17 18 18 18 17 16 15 14 13 13 12 11 10 9 9 8 8 8 8 9 9 8 6 6 6 6 7 7 7 7 7 7 8 8 9 9 9 10 10 9 9 8 8 8 8 8 7 7 7 8 8 8 8 8 8
18 15 14 14 15 16 15 14 16 18 18 18 17 15 14 13 13 13 12 11 9 8 8 8 7 7 8 8 8 7 6 5 6 6 6 7 7 7 8 8 9 9 9 9 9 8 8 8 7 6 5 6 6 6 6 6 7 7 8 7 7 7 7
19 15 13 14 15 16 16 14 15 18 18 19 18 15 13 13 13 13 13 11 9 8 8 7 7 7 8 8 8 7 6 5 6 6 6 6 6 6 6 6 7 7 7 7 7 7 6 6 5 4 4 4 4 5 5 6 6 7 6 6 6 6 6
18 15 13 14 15 17 16 13 14 17 18 18 19 17 14 12 13 13 13 11 9 8 7 7 7 7 7 8 8 7 7 6 6 6 6 6 6 5 5 4 4 5 6 6 6 6 5 5 4 4 3 3 4 4 5 5 5 5 5 5 5 5 6
17 14 13 14 16 17 16 13 13 15 16 17 18 18 15 13 13 13 11 9 8 7 7 7 7 8 7 7 7 7 7 7 7 7 6 6 6 5 4 4 4 4 5 5 5 4 4 4 4 4 4 4 4 4 5 5 4 4 4 5 5 5 5
16 14 13 15 16 16 16 13 12 14 15 16 18 18 16 14 13 12 10 8 8 7 7 7 8 8 8 7 6 7 7 7 7 7 6 6 6 5 4 4 4 4 4 4 4 4 4 4 4 4 4 4 4 4 3 3 3 4 4 5 5 5 5
15 14 14 16 17 17 16 14 12 13 15 15 17 18 17 15 13 12 9 8 8 8 7 7 7 8 8 7 6 6 6 6 7 7 6 6 5 5 4 4 4 4 4 4 4 4 4 4 4 4 4 3 2 2 1 1 2 3 4 4 4 4 4
15 14 15 17 17 16 16 14 12 12 14 15 16 17 17 15 14 11 9 8 9 8 7 7 7 8 8 7 7 6 6 6 7 6 6 6 5 5 4 4 4 4 5 5 4 4 3 3 3 3 3 2 1 1 1 1 2 2 3 3 3 3 3
15 15 16 17 17 16 15 13 11 12 13 14 16 17 17 16 14 11 9 9 9 8 7 7 7 8 8 7 7 6 6 6 6 6 5 6 5 5 5 5 5 5 5 5 4 3 3 4 4 3 3 3 2 2 1 1 1 1 2 2 2 2 3
15 15 16 17 16 15 14 12 11 11 12 13 14 16 17 15 13 11 9 9 9 8 8 8 8 8 8 7 7 6 6 6 6 5 5 6 6 5 5 5 5 5 4 5 4 4 5 5 5 5 4 3 3 2 2 1 1 1 2 2 2 2 2
15 15 16 17 16 15 13 12 11 10 11 12 13 15 16 15 13 11 9 9 9 8 8 8 8 8 8 7 7 6 6 6 6 6 6 6 6 6 6 6 5 5 5 5 5 5 5 5 5 5 4 4 3 2 1 1 0 1 2 2 2 2 2
16 16 17 17 16 15 13 12 10 10 10 10 11 13 15 15 13 11 10 10 9 8 9 9 9 9 9 8 7 6 6 6 7 7 7 7 7 7 7 6 6 6 6 7 7 7 6 5 4 4 3 3 2 1 1 0 1 1 2 2 2 3 3
17 18 17 16 15 15 15 13 11 10 10 10 10 12 14 15 14 11 10 10 9 8 9 9 9 9 9 9 7 6 6 6 7 8 8 8 8 8 7 7 7 7 7 8 8 8 7 6 5 4 3 3 2 2 2 2 2 2 2 2 3 3 4
19 18 17 16 15 16 16 14 12 11 11 9 9 11 13 14 14 12 11 10 9 8 9 9 9 9 9 9 8 7 7 7 8 8 9 8 8 8 8 7 8 8 8 9 9 9 8 7 6 5 5 4 4 3 3 3 3 3 3 3 3 4 4
19 19 18 17 16 16 16 15 14 13 12 10 9 10 12 13 14 13 11 11 10 9 8 9 9 9 9 9 8 8 7 8 8 9 9 9 8 8 9 8 9 9 9 9 9 9 8 8 7 7 6 5 5 4 4 4 4 4 4 4 4 4 4
20 20 20 18 17 17 17 16 16 15 14 12 10 9 11 13 13 13 12 11 11 9 8 8 9 9 9 9 9 9 9 9 9 9 9 9 9 9 9 9 10 10 10 10 10 9 9 8 8 7 6 5 5 5 5 5 5 4 4 4 4 4 5
21 21 21 21 20 19 19 18 18 17 16 15 12 10 11 12 13 12 12 11 11 10 9 8 8 9 9 9 9 10 10 10 10 10 9 9 9 9 10 10 11 11 11 11 10 10 9 9 8 8 7 6 5 5 5 5 5 5 5 5 5 5 5
24 23 24 24 23 22 21 20 20 19 19 17 15 13 12 13 13 12 11 11 11 11 10 8 8 9 9 9 10 10 11 11 11 11 10 9 9 10 10 11 11 11 12 12 11 10 10 9 9 8 8 7 6 6 5 6 5 5 5 5 5 5 6
28 28 27 26 27 27 25 23 23 21 21 19 17 16 16 14 13 12 11 11 10 11 11 10 8 8 9 9 10 11 11 11 12 12 11 10 10 10 11 11 11 12 12 13 12 11 10 10 9 9 8 8 7 7 6 6 6 5 5 5 5 5 5
28 30 29 29 30 29 24 23 22 21 22 22 20 19 18 16 14 14 12 11 10 10 11 11 10 9 9 9 10 11 12 12 12 12 12 11 10 10 11 11 12 12 13 13 13 12 11 11 10 9 9 9 8 7 7 7 6 5 5 6 5 5 5
26 29 30 31 32 30 25 23 21 18 20 24 23 22 22 19 16 15 14 12 11 10 10 11 11 10 9 9 10 11 12 12 12 12 12 12 11 11 11 12 13 13 13 13 14 13 12 11 11 10 9 9 9 8 8 7 7 6 6 6 6 6 5
24 28 30 31 32 31 29 27 24 21 22 25 24 24 25 23 20 18 17 15 12 11 10 10 11 11 10 10 10 11 12 12 13 13 13 12 12 12 12 12 13 13 14 14 14 14 13 12 11 10 10 9 9 9 9 8 7 6 6 7 6 6 5
22 25 29 30 31 30 29 27 26 25 26 28 27 26 26 26 23 21 19 17 14 13 12 10 10 11 12 11 11 11 12 12 12 13 13 13 12 12 12 13 13 13 14 14 14 14 13 12 11 10 10 10 10 9 9 9 8 6 6 7 7 7 6
22 24 27 29 30 30 29 28 27 27 28 29 29 28 27 27 25 23 21 20 17 15 14 12 11 11 12 12 12 12 12 12 12 13 13 13 13 13 12 12 12 13 13 14 14 14 14 13 12 10 10 10 10 9 9 9 8 7 6 6 7 7 7
23 24 26 29 30 31 31 31 30 30 29 29 29 27 25 26 27 26 23 21 19 18 17 15 13 12 12 13 13 13 13 12 12 13 13 14 14 13 12 12 12 12 13 14 14 14 14 13 12 11 10 10 10 10 9 9 9 8 7 6 6 7 7

ECMWFFLT1_700_spd_246.txt.gz
Wind_Speed
9 11 12 14 16 17 18 19 19 18 17 15 14 13 12 10 9 9 9 9 9 8 8 8 7 7 8 8 8 8 8 7 5 4 3 3 3 4 4 4 5 6 8 9 10 12 14 15 14 12 11 12 12 11 11 12 13 12 12 12 12 13 13
9 11 13 15 17 18 19 20 20 20 18 16 14 13 12 11 9 9 9 9 9 9 9 8 7 7 7 7 7 7 7 7 6 6 4 3 4 5 4 4 6 7 7 9 11 12 15 16 13 10 11 11 11 11 12 13 13 13 14 14 14 14 13
10 12 14 16 17 19 21 22 22 22 20 18 16 14 13 12 10 10 9 10 10 10 10 9 8 7 7 7 7 6 6 5 5 5 5 5 4 5 5 5 6 7 8 10 11 12 14 14 10 8 10 11 11 11 11 12 13 14 14 14 14 14 13
11 12 14 16 18 20 21 22 23 23 22 20 18 16 14 13 12 11 10 10 10 10 10 10 10 9 8 8 8 7 6 5 5 4 4 5 5 5 6 7 7 7 8 9 11 12 13 11 8 8 10 11 11 11 10 10 11 12 13 12 13 12 12
11 13 15 16 18 19 21 22 23 23 23 21 19 18 17 15 14 13 12 12 11 11 11 11 11 10 9 9 9 8 7 7 7 6 5 5 5 5 6 6 7 8 8 10 11 11 12 10 8 9 10 9 10 10 10 9 9 10 10 11 11 11 11
12 14 16 17 18 19 20 21 22 23 23 22 20 19 18 17 16 15 14 13 13 13 13 12 12 11 10 10 9 9 8 8 9 8 8 7 6 5 6 6 7 8 9 11 11 10 11 11 9 9 9 9 10 9 9 8 7 8 8 9 9 10 10
13 15 16 17 17 18 19 20 21 22 23 22 20 19 19 18 17 16 14 14 13 13 13 13 12 11 11 11 10 10 9 10 10 10 10 9 8 6 5 6 7 8 10 11 11 11 10 10 9 7 7 9 10 8 8 7 7 7 7 8 9 9 9
14 15 16 17 17 17 18 19 20 21 22 21 20 19 19 19 18 17 15 14 13 13 12 12 12 12 11 11 10 10 10 10 11 11 11 10 9 7 6 5 6 8 10 11 11 10 9 9 10 7 6 7 8 6 7 7 6 7 7 8 8 9 9
15 16 16 16 17 17 18 18 19 20 21 21 20 19 19 19 19 18 16 14 13 13 13 12 12 12 11 10 10 10 10 10 10 10 10 10 9 8 8 7 7 8 9 10 10 9 7 8 9 8 6 6 5 6 7 7 6 6 7 8 8 8 9
16 16 16 17 18 18 18 19 19 19 21 21 20 19 19 19 19 19 17 15 13 12 12 12 11 11 10 9 9 9 9 8 8 8 8 9 9 9 9 9 8 8 8 9 10 9 7 7 6 7 7 5 4 5 6 5 5 5 7 8 9 9 10
17 17 17 17 18 18 19 19 19 18 19 20 20 19 19 19 19 19 18 15 13 11 11 11 11 10 9 8 8 7 7 7 7 6 6 7 9 9 10 10 9 9 8 8 9 10 9 8 6 6 7 5 3 3 5 6 7 7 8 9 9 9 10
18 18 18 18 19 19 19 20 19 17 18 19 19 19 20 20 19 19 18 16 13 11 11 10 10 9 8 8 7 6 6 6 5 5 5 5 8 9 10 10 10 9 9 8 9 10 11 11 9 8 7 6 6 5 6 9 9 8 7 8 8 8 8
18 19 19 19 20 20 21 21 19 16 16 17 18 19 20 20 20 19 19 16 13 12 10 10 9 9 8 7 7 6 6 5 4 4 4 4 5 7 9 10 11 10 10 9 9 10 11 11 10 8 6 5 6 6 7 9 9 7 6 6 6 6 6
19 20 21 21 21 22 23 23 18 14 15 16 17 18 20 20 20 20 19 16 14 12 10 9 9 8 8 7 7 6 6 5 4 3 3 4 4 5 7 8 9 10 10 10 10 10 10 10 9 7 5 5 5 5 6 8 7 5 4 4 3 4 4
21 22 22 23 23 24 26 23 16 12 13 15 16 17 19 20 20 20 19 17 14 13 11 9 8 8 7 7 7 6 6 5 4 4 4 4 4 5 5 6 6 7 7 8 8 8 8 8 6 5 4 3 3 3 4 5 4 3 2 2 2 2 2
22 23 23 23 22 23 25 21 14 12 13 14 15 17 18 19 20 20 19 17 15 13 12 10 8 8 8 7 7 7 6 6 5 4 4 4 5 5 5 5 5 5 4 4 5 5 5 6 5 4 4 3 2 2 3 3 2 2 1 1 1 1 1
19 20 20 21 20 19 18 16 13 12 12 13 15 16 17 19 19 19 19 17 15 13 12 11 9 8 8 8 8 7 6 6 5 5 5 5 5 5 5 5 4 4 4 3 3 3 3 4 4 4 4 4 3 3 3 2 2 2 2 1 1 1 1
16 16 16 18 18 15 13 13 14 12 11 13 15 16 17 18 19 19 19 17 15 13 12 11 10 8 8 8 8 7 7 6 6 5 5 5 5 4 4 4 3 3 3 3 2 2 2 3 3 3 3 3 2 2 2 2 3 2 1 1 1 0 1
15 14 14 14 14 13 12 13 13 11 11 13 14 15 16 18 18 19 18 18 16 13 12 11 10 9 8 8 8 7 7 6 6 6 5 5 5 4 3 3 3 3 3 3 2 2 2 2 2 2 2 2 2 2 2 2 2 1 0 0 1 1 2
17 16 14 12 12 12 12 12 12 11 12 13 14 15 16 17 18 18 18 18 16 14 12 11 10 9 8 8 7 7 7 6 6 6 6 5 4 3 3 3 3 3 3 3 2 2 2 1 1 1 1 1 2 2 2 1 1 1 0 1 1 2 3
19 19 16 14 12 12 12 12 12 12 12 13 14 15 16 17 17 17 17 17 16 14 12 11 9 9 8 7 7 7 6 6 6 5 5 5 4 3 3 4 4 4 3 3 2 2 2 1 1 2 2 2 2 2 1 1 1 0 1 1 2 3 4
21 19 17 15 14 13 12 12 12 12 13 13 14 14 15 16 16 17 17 17 16 14 12 11 9 8 8 7 6 6 6 6 5 5 5 4 4 3 3 4 4 4 3 3 3 2 2 2 2 2 2 2 2 2 1 1 1 1 2 2 3 3 4
21 19 18 16 14 13 12 12 12 13 13 13 13 14 15 16 16 16 16 16 17 15 13 11 10 8 8 7 5 5 5 6 5 5 4 4 4 4 4 5 5 5 4 4 3 3 3 3 3 3 2 2 2 2 2 2 2 2 2 3 3 3 3
20 19 18 16 14 12 12 12 12 12 12 12 13 14 15 16 17 16 16 16 16 15 13 12 10 9 8 7 6 5 4 5 6 5 4 4 4 4 5 5 6 6 5 5 5 4 4 4 4 4 3 3 3 3 3 3 3 3 3 3 3 3 3
17 18 17 16 15 13 13 12 12 12 12 12 13 15 16 17 17 17 16 15 16 16 14 13 12 10 9 8 7 5 4 5 6 6 5 5 4 4 5 6 6 6 6 6 6 6 6 6 5 5 4 4 4 3 3 3 3 3 3 3 3 3 3
15 16 17 17 16 15 14 13 13 13 13 13 14 15 16 17 18 18 17 16 16 16 15 13 12 11 10 9 8 6 5 4 5 6 6 5 5 5 5 6 7 7 7 7 7 7 7 7 6 6 5 4 4 4 4 3 3 3 3 3 3 3 3
14 13 15 16 17 17 16 15 14 14 15 15 15 16 16 18 18 19 19 17 17 16 16 14 13 12 11 10 9 8 6 5 5 6 6 6 6 5 6 6 7 8 8 8 8 8 8 7 7 7 6 5 5 5 4 4 4 4 4 4 3 3 3
17 15 15 16 17 17 17 17 17 17 18 17 17 17 18 18 18 19 19 18 17 17 17 15 14 13 12 11 10 9 8 7 6 6 6 6 6 6 6 7 7 8 9 9 9 9 9 8 8 8 7 6 6 6 5 5 5 5 4 4 4 4 3
18 18 18 18 18 18 18 18 19 20 20 20 20 20 20 19 19 19 20 20 18 18 17 16 15 14 13 12 12 11 10 9 7 6 6 7 7 7 7 7 8 8 9 10 10 10 10 9 9 9 8 7 7 7 6 6 6 6 5 5 4 4 3
18 18 19 19 19 20 19 19 21 22 22 22 22 22 21 20 19 20 22 21 20 19 17 17 16 15 13 13 13 12 12 10 9 8 7 7 7 8 8 8 8 9 9 10 11 11 11 10 10 9 9 8 8 8 7 7 7 6 6 5 4 4 3
20 21 20 19 19 20 21 22 25 25 23 22 23 22 22 21 22 22 21 19 19 19 18 17 16 16 15 13 13 13 13 12 11 10 8 8 8 8 9 9 9 9 10 10 11 11 11 11 10 10 9 9 8 8 8 8 7 7 7 6 5 4 3
21 23 23 20 19 22 24 26 27 24 21 20 22 24 25 24 24 22 18 17 17 17 17 17 16 17 16 15 13 14 14 14 13 11 10 9 9 9 9 10 10 10 10 10 11 11 11 11 11 10 10 9 9 8 8 8 8 8 7 6 5 5 4
21 23 24 23 22 24 26 26 24 22 20 20 21 23 25 25 24 22 20 18 17 16 16 17 17 17 17 16 15 14 14 15 14 13 12 11 10 10 10 10 10 10 10 11 11 11 11 11 11 11 10 9 9 9 9 9 8 8 7 7 6 5 5
22 22 23 24 24 26 26 24 24 24 22 20 20 22 24 24 23 22 21 20 18 17 16 17 17 18 18 18 17 15 14 15 15 14 13 12 12 11 11 11 11 11 11 11 11 12 12 12 11 11 10 9 9 9 9 9 9 8 8 7 7 6 6
24 25 24 24 25 27 27 26 25 25 23 21 21 22 22 22 22 22 21 20 20 19 18 18 19 19 19 19 19 17 16 15 15 14 14 14 13 12 12 12 11 11 11 11 11 11 12 12 12 11 10 10 9 9 9 9 9 9 9 8 7 7 6
27 27 28 27 27 27 28 28 26 25 24 23 21 21 21 21 22 22 21 21 20 19 19 20 20 21 20 20 20 19 18 17 15 15 15 16 15 13 13 13 13 12 12 12 12 12 12 12 12 12 11 10 10 10 10 10 10 9 9 9 8 8 7
29 29 30 30 30 29 29 29 28 27 26 24 23 23 24 23 23 23 22 21 20 20 20 21 21 22 23 22 21 21 21 19 17 16 16 17 16 15 14 14 14 13 13 13 13 13 12 12 12 12 12 11 10 10 10 10 10 10 10 10 9 9 8

ECMWFFLT1_700_spd_252.txt.gz
Wind_Speed
4 5 7 9 11 12 14 15 15 15 16 17 16 13 11 10 9 9 8 8 9 8 8 7 7 8 8 8 8 9 9 8 8 7 5 5 5 6 8 9 9 10 10 10 11 12 13 13 14 15 15 14 15 17 18 17 16 16 16 17 17 16 17
4 5 7 8 10 12 13 14 15 15 15 16 16 14 12 10 10 10 9 8 8 9 9 8 8 7 7 8 8 9 8 8 8 8 7 6 6 7 8 9 10 10 11 11 11 13 13 13 14 15 15 14 14 15 16 16 16 16 16 17 16 14 16
4 6 7 9 11 12 13 13 15 15 14 15 15 14 12 10 10 10 10 9 9 9 9 9 8 8 7 7 8 8 8 7 7 8 7 7 7 7 8 9 10 11 12 11 11 13 13 13 15 16 15 14 12 12 14 15 15 16 16 17 16 14 14
6 8 9 10 11 13 13 13 14 14 14 15 15 14 13 11 10 10 10 10 10 10 9 9 8 8 7 7 7 7 7 7 7 7 8 8 7 7 8 9 10 11 11 11 11 13 13 14 14 14 14 13 12 13 14 15 15 15 15 15 15 13 12
8 9 11 12 13 13 13 14 15 15 16 16 15 15 14 13 11 10 10 10 10 10 10 9 9 9 8 8 7 6 6 7 8 7 7 8 7 7 8 9 9 10 11 11 12 13 14 13 12 12 12 12 14 15 15 14 14 13 13 12 12 12 11
10 11 13 14 15 15 15 16 16 17 17 17 17 16 15 14 12 10 10 10 10 10 10 9 9 8 9 8 7 6 6 6 7 7 6 7 8 8 8 8 9 10 12 12 13 14 13 12 11 11 12 13 13 13 13 13 12 12 11 11 11 11 11
13 13 15 16 17 17 18 18 19 19 19 19 18 17 16 15 14 12 10 10 10 10 10 10 9 8 8 7 6 6 6 6 6 5 5 6 8 9 9 9 8 10 12 11 12 13 12 11 11 11 11 12 11 11 12 12 10 10 10 10 10 11 11
16 16 17 18 19 19 19 20 21 21 21 20 19 18 17 15 14 12 11 10 9 9 9 9 9 8 7 7 6 6 5 5 5 5 5 6 7 9 9 9 8 9 11 10 10 12 11 10 10 10 10 10 9 10 10 10 10 10 10 10 11 12 12
18 19 20 20 20 20 21 22 22 22 21 20 20 19 18 16 14 12 11 10 9 9 9 8 8 8 7 6 5 5 5 4 4 5 5 5 7 8 9 8 7 8 10 9 9 11 11 9 8 8 8 8 8 8 8 8 9 10 10 11 12 13 13
20 20 21 22 22 22 22 23 22 22 21 20 19 18 18 16 14 13 11 11 10 10 9 9 8 8 7 6 5 4 4 4 3 4 5 5 6 7 7 7 6 7 9 9 8 9 10 8 8 8 7 8 8 7 7 7 7 8 10 12 13 14 14
22 22 22 23 23 23 23 23 23 21 21 21 19 18 18 15 12 12 12 11 10 10 10 9 8 8 8 7 5 4 3 3 3 3 4 4 5 5 5 5 5 5 7 9 8 8 9 8 7 7 7 8 7 6 7 8 7 7 10 12 14 14 13
24 23 23 24 23 23 23 23 23 22 21 21 20 19 18 14 11 11 11 10 10 10 10 10 9 8 7 6 5 4 4 3 2 3 4 4 4 3 4 4 4 4 6 7 7 7 8 7 7 7 6 6 5 4 7 9 8 8 10 11 12 13 11
25 25 24 23 22 21 22 22 21 21 21 21 19 19 17 12 10 11 11 10 10 10 10 10 9 7 7 6 5 4 4 3 3 3 3 4 4 3 3 3 2 3 4 5 6 7 7 6 6 5 5 5 4 5 7 8 8 8 9 9 9 9 8
29 28 23 22 22 20 20 21 20 20 21 20 19 18 15 11 10 11 11 10 10 10 10 10 9 8 6 5 5 5 4 4 4 4 4 4 4 3 3 3 2 2 2 2 4 5 5 5 5 4 5 5 4 4 5 6 5 6 7 6 6 7 7
32 31 23 19 20 19 19 20 20 20 20 19 17 15 13 10 10 11 11 10 10 11 11 10 9 7 6 5 5 5 5 4 4 4 4 4 4 4 4 3 2 1 2 1 2 2 2 3 2 2 4 4 4 4 5 5 4 4 6 6 6 6 6
28 30 24 19 17 17 19 19 19 20 19 16 15 14 12 10 10 12 11 10 11 12 12 10 9 8 6 6 5 5 5 5 5 4 4 4 4 4 4 3 3 2 2 1 1 1 1 1 2 3 3 4 5 6 5 4 4 4 5 5 4 5 5
24 27 27 24 19 17 18 19 19 19 17 14 12 12 11 10 11 12 11 10 10 12 12 11 9 8 7 6 6 5 5 5 5 4 4 4 4 4 3 3 2 2 2 1 1 2 2 2 2 2 3 5 6 6 5 4 5 5 4 4 3 3 3
23 24 27 29 26 21 18 18 19 17 15 13 12 11 10 10 11 12 11 10 10 12 12 11 10 8 7 6 6 6 5 5 5 4 4 4 3 3 2 2 2 2 1 1 1 2 2 2 2 3 4 5 6 6 5 4 5 4 3 3 3 2 2
22 22 24 28 30 26 21 20 18 15 13 13 11 10 10 10 11 12 10 9 10 11 11 11 10 9 7 6 6 6 5 5 4 4 4 3 2 2 2 1 1 1 1 1 1 1 1 2 2 3 4 3 3 4 4 3 3 3 4 4 3 3 3
23 22 22 25 29 28 25 24 20 14 11 12 12 10 9 10 11 11 9 8 8 10 11 12 11 10 8 6 5 5 5 5 4 4 3 2 2 2 1 1 1 2 2 1 1 1 1 2 2 3 2 1 0 1 2 3 4 4 5 5 5 4 4
25 23 21 23 27 28 25 25 25 19 13 12 12 12 10 10 11 10 9 7 7 8 10 12 12 10 8 7 5 5 5 4 4 4 3 2 2 1 1 2 2 2 1 1 1 1 2 2 2 1 1 1 1 1 1 2 3 4 5 5 5 5 5
24 24 22 21 24 26 23 23 26 24 18 13 12 13 13 12 11 11 9 7 7 8 9 11 11 11 9 7 5 5 5 4 4 4 3 3 2 2 2 2 2 2 1 1 2 2 2 3 2 2 1 1 1 1 1 2 3 4 4 5 5 5 5
22 22 20 20 22 24 24 22 23 23 22 18 13 12 14 14 13 13 12 9 7 7 8 9 10 11 10 7 5 5 5 4 3 4 4 3 3 2 2 2 2 2 2 2 2 2 3 3 3 3 2 1 1 0 1 2 3 4 4 5 5 5 5
22 20 19 18 19 21 23 23 21 20 21 21 15 13 15 16 16 16 15 12 8 6 7 8 9 10 10 8 6 4 4 4 4 4 4 4 4 3 3 3 3 3 2 3 3 3 3 3 3 3 2 1 1 0 1 2 3 3 4 5 5 5 6
21 21 19 18 19 20 22 22 21 18 17 19 18 17 17 17 18 18 17 15 11 7 6 7 8 9 10 9 7 5 4 4 4 4 5 5 5 4 4 4 3 3 3 3 3 3 3 3 3 3 2 2 1 0 1 2 3 3 4 5 5 6 6
21 20 20 19 19 20 20 19 20 18 16 17 19 18 16 17 18 19 18 18 15 10 7 8 8 9 9 10 8 6 4 4 4 5 5 6 5 5 4 4 4 4 4 4 4 4 4 4 4 4 3 2 1 1 1 2 3 3 4 5 5 6 6
20 20 20 20 19 18 18 18 19 17 15 16 18 18 17 17 19 19 19 19 18 13 9 9 10 9 9 9 8 7 5 4 4 4 5 6 6 6 5 5 5 5 4 4 5 5 5 4 4 4 3 2 1 1 1 2 2 3 4 4 5 5 5
20 21 20 20 19 18 17 16 16 15 14 16 16 16 17 17 18 20 21 20 20 16 12 11 12 10 10 10 8 8 7 5 4 4 5 6 7 7 7 6 6 5 5 5 6 6 5 5 5 4 3 3 2 2 2 2 3 3 4 4 4 4 5
23 24 23 21 20 18 17 15 14 14 14 15 16 17 18 18 19 21 22 21 22 20 15 13 13 12 11 11 9 8 7 6 5 4 5 6 7 8 8 7 7 7 6 6 6 6 6 6 5 4 4 3 3 2 2 2 3 3 4 4 4 5 5
24 25 26 25 23 21 19 17 14 13 14 15 15 16 18 19 21 22 22 22 23 22 19 15 15 15 13 12 11 9 7 6 6 5 5 6 7 8 9 8 7 8 7 7 7 7 7 6 6 6 5 4 4 4 3 3 3 4 4 4 4 5 5
25 24 26 26 24 23 22 19 17 15 15 14 13 13 14 15 18 22 23 23 23 23 22 19 18 17 15 13 12 11 9 7 7 6 5 6 6 8 9 9 9 9 8 8 7 7 8 7 7 7 6 6 6 5 5 4 4 4 4 4 4 5 5
29 24 23 25 25 25 24 23 21 18 17 16 15 14 13 14 17 20 23 23 22 22 22 20 19 18 17 15 13 13 11 9 8 7 7 6 6 7 9 9 10 10 9 8 8 8 8 8 8 8 8 7 7 6 6 5 5 5 5 5 5 5 5
31 26 23 24 27 27 25 24 23 21 20 19 18 16 16 17 18 19 22 23 23 22 20 19 19 19 18 16 15 15 13 10 9 9 8 6 6 7 8 9 10 10 10 10 9 9 9 8 8 8 7 7 7 7 7 7 7 7 6 6 6 5 5
29 28 24 23 26 27 26 25 25 24 24 23 20 17 17 18 18 18 20 22 23 23 22 20 20 20 20 19 17 16 14 13 12 11 10 8 7 7 7 8 9 10 11 11 10 10 9 8 8 8 8 8 9 10 10 9 9 8 8 7 6 6 6
27 28 26 24 24 24 25 26 25 26 27 27 25 22 19 18 19 19 20 20 20 22 23 22 23 23 22 21 20 19 17 17 16 14 12 11 9 7 7 8 9 10 10 11 11 10 10 9 9 9 10 10 11 11 10 10 9 9 9 8 7 7 7
26 27 26 25 24 23 23 24 24 24 25 25 26 25 22 20 20 18 18 19 19 19 20 22 24 24 22 22 22 21 20 19 19 18 16 14 12 8 6 8 10 9 9 10 11 11 11 10 10 11 11 10 10 10 10 11 11 10 10 9 9 9 9
26 24 24 24 23 23 23 22 21 22 23 22 22 22 21 23 24 20 15 15 17 17 18 20 21 22 21 21 22 22 22 21 21 20 19 18 15 11 6 7 10 9 9 10 10 10 11 12 12 12 11 11 11 11 11 12 12 11 11 11 11 11 10